TimePDT,TemperatureF,Dew PointF,Humidity,Sea Level PressureIn,VisibilityMPH,Wind Direction,Wind SpeedMPH,Gust SpeedMPH,PrecipitationIn,Events,Conditions,WindDirDegrees,DateUTC
12:53 AM,57.9,53.1,84,30.11,10.0,Calm,Calm,-,N/A,,Clear,0,2013-05-09 07:53:00
1:53 AM,55.9,52.0,87,30.11,10.0,South,5.8,-,N/A,,Clear,180,2013-05-09 08:53:00
2:53 AM,55.9,52.0,87,30.12,10.0,Calm,Calm,-,N/A,,Clear,0,2013-05-09 09:53:00
3:53 AM,51.1,48.9,92,30.12,10.0,Calm,Calm,-,N/A,,Clear,0,2013-05-09 10:53:00
4:53 AM,51.8,48.2,88,30.15,10.0,ENE,3.5,-,N/A,,Clear,70,2013-05-09 11:53:00
5:53 AM,52.0,50.0,93,30.14,10.0,Calm,Calm,-,N/A,,Clear,0,2013-05-09 12:53:00
6:24 AM,51.8,50.0,94,30.16,10.0,Calm,Calm,-,N/A,,Scattered Clouds,0,2013-05-09 13:24:00
6:53 AM,52.0,48.9,89,30.16,10.0,Calm,Calm,-,N/A,,Scattered Clouds,0,2013-05-09 13:53:00
7:53 AM,54.0,51.1,90,30.17,10.0,Calm,Calm,-,N/A,,Partly Cloudy,0,2013-05-09 14:53:00
8:53 AM,60.1,51.1,72,30.17,10.0,North,3.5,-,N/A,,Clear,10,2013-05-09 15:53:00
9:53 AM,62.6,51.8,68,30.16,10.0,Calm,Calm,-,N/A,,Clear,0,2013-05-09 16:53:00
10:53 AM,66.9,52.0,59,30.14,10.0,Calm,Calm,-,N/A,,Clear,0,2013-05-09 17:53:00
11:53 AM,72.0,53.1,51,30.12,10.0,Variable,4.6,-,N/A,,Clear,0,2013-05-09 18:53:00
12:53 PM,75.9,52.0,43,30.11,10.0,Calm,Calm,-,N/A,,Clear,0,2013-05-09 19:53:00
1:53 PM,78.1,51.1,39,30.09,10.0,Variable,3.5,-,N/A,,Clear,0,2013-05-09 20:53:00
2:53 PM,82.9,50.0,32,30.06,10.0,Variable,3.5,-,N/A,,Clear,0,2013-05-09 21:53:00
3:53 PM,84.9,45.0,25,30.03,10.0,NW,5.8,-,N/A,,Clear,320,2013-05-09 22:53:00
4:53 PM,86.0,42.8,22,30.04,10.0,NW,4.6,-,N/A,,Clear,320,2013-05-09 23:53:00
5:53 PM,86.0,45.0,24,30.01,10.0,Variable,3.5,-,N/A,,Clear,0,2013-05-10 00:53:00
6:53 PM,86.0,45.0,24,30.01,10.0,Calm,Calm,-,N/A,,Clear,0,2013-05-10 01:53:00
7:53 PM,81.0,52.0,36,30.02,10.0,North,10.4,-,N/A,,Clear,10,2013-05-10 02:53:00
8:53 PM,75.0,50.0,41,30.03,10.0,North,4.6,-,N/A,,Clear,360,2013-05-10 03:53:00
9:53 PM,75.0,51.1,43,30.07,10.0,NNW,5.8,-,N/A,,Clear,340,2013-05-10 04:53:00
10:53 PM,70.0,52.0,53,30.09,10.0,ESE,3.5,-,N/A,,Clear,120,2013-05-10 05:53:00
11:53 PM,66.0,52.0,60,30.11,10.0,Calm,Calm,-,N/A,,Clear,0,2013-05-10 06:53:00